CDT,Max TemperatureF,Mean TemperatureF,Min TemperatureF,Max Dew PointF,MeanDew PointF,Min DewpointF,Max Humidity, Mean Humidity, Min Humidity, Max Sea Level PressureIn, Mean Sea Level PressureIn, Min Sea Level PressureIn, Max VisibilityMiles, Mean VisibilityMiles, Min VisibilityMiles, Max Wind SpeedMPH, Mean Wind SpeedMPH, Max Gust SpeedMPH,PrecipitationIn, CloudCover, Events, WindDirDegrees
2013-7-1,79,72,64,66,61,58,88,76,55,29.98,29.92,29.88,10,8,5,16,9,29,0.34,4,Rain,23
2013-7-2,70,66,61,63,61,57,90,85,78,30.02,29.99,29.95,10,6,4,12,8,16,0.03,8,Rain,23
2013-7-3,77,68,59,69,62,55,93,80,64,30.09,30.04,29.99,7,4,0,10,3,,0.16,3,Rain,230
2013-7-4,85,70,55,76,61,53,93,74,45,30.12,30.08,30.05,10,5,0,9,2,,0.00,0,Fog,122
2013-7-5,88,76,63,71,66,56,93,73,52,30.10,30.07,30.02,7,5,0,9,3,,0.00,2,Fog,167
2013-7-6,77,72,66,71,67,63,92,84,77,30.07,30.05,30.00,7,5,0,9,3,,0.00,3,Rain,184
2013-7-7,89,76,64,72,68,63,95,78,53,30.06,30.03,29.98,10,6,0,12,5,,0.00,1,Fog-Rain,187
2013-7-8,90,80,72,74,72,69,91,76,56,30.08,30.03,30.00,7,7,5,17,8,23,0.00,0,Rain,216
2013-7-9,95,85,75,78,75,71,89,76,56,30.03,29.98,29.91,10,7,5,13,7,,0.00,1,Rain,220
2013-7-10,88,76,64,77,71,60,92,79,55,29.99,29.90,29.84,10,7,2,24,8,37,0.24,2,Rain,258
2013-7-11,85,72,58,65,59,54,93,68,41,30.07,30.04,29.98,10,8,4,12,7,17,0.00,1,Rain,16
2013-7-12,88,70,51,68,56,48,89,63,35,30.13,30.09,30.05,10,8,5,9,4,,0.00,0,,37
2013-7-13,89,73,57,68,60,47,87,63,40,30.13,30.09,30.06,10,8,5,13,4,18,0.00,1,,71
2013-7-14,97,81,66,82,68,60,82,66,43,30.18,30.14,30.10,10,7,5,7,4,,0.00,1,,94
2013-7-15,94,82,71,79,70,65,85,68,51,30.26,30.22,30.17,10,7,5,9,3,,0.00,1,,144
2013-7-16,101,84,67,75,69,61,86,64,37,30.33,30.29,30.26,10,7,4,7,1,,0.00,1,,193
2013-7-17,101,86,70,75,70,64,83,56,37,30.33,30.25,30.18,10,7,5,7,1,,0.00,0,,262
2013-7-18,99,84,70,76,71,63,83,64,44,30.20,30.11,30.01,7,6,0,9,2,,0.00,1,,223
2013-7-19,96,86,75,76,73,70,88,66,48,30.00,29.92,29.84,7,6,4,14,8,21,0.00,0,,220
2013-7-20,93,80,68,81,72,66,91,79,53,29.93,29.86,29.82,10,6,1,13,7,18,0.65,2,Rain,209
2013-7-21,84,76,68,75,70,65,91,83,71,29.96,29.91,29.86,7,3,0,7,2,,0.00,4,Fog-Rain,159
2013-7-22,92,80,69,81,69,64,89,77,52,29.85,29.81,29.77,10,6,1,8,2,,1.33,4,Rain,123
2013-7-23,88,75,61,72,66,55,93,71,47,29.93,29.81,29.75,10,8,3,17,6,23,0.08,1,Rain,316
2013-7-24,80,66,53,57,54,43,89,66,40,30.03,29.98,29.92,10,9,5,14,6,17,0.00,0,Rain,26
2013-7-25,86,68,51,68,55,47,91,66,33,30.10,30.07,30.02,10,10,5,6,2,,0.00,1,,15
2013-7-26,83,70,57,66,60,51,90,75,50,30.06,30.00,29.89,10,9,4,12,3,17,0.00,2,Rain,211
2013-7-27,78,64,51,66,56,46,92,70,41,29.95,29.90,29.87,10,8,5,15,7,23,0.00,3,,284
2013-7-28,77,63,49,54,50,45,88,64,40,30.04,29.97,29.93,10,9,5,22,7,28,0.00,4,,261
2013-7-29,84,66,49,59,52,44,87,60,35,30.16,30.12,30.03,10,9,5,10,1,,0.00,0,,263
2013-7-30,71,62,55,65,59,47,88,76,56,30.17,30.12,30.05,10,8,4,10,2,,0.10,4,Rain,122
2013-7-31,81,74,66,73,68,64,94,86,69,30.06,29.99,29.94,10,4,0,10,5,,0.01,6,Rain,249